NOAA 16 DEB, 41372

Orbit data source: Space-Track

NOAA 16 DEB, 41372 is space debris in SSO originally from a launch on Thu, 21 Sep 2000 UTC launched from the Air Force Western Test Range (AFWTR). Debris objects in space refer to the collection of defunct objects orbiting the Earth. Examples of debris include non-operational satellites, rocket bodies, and fragments generated from explosions, collisions, or faulty payload assembly.

Loading next visibility...
Identifier
41372, 2000-055JR
Orbit
SSO
Last TLE update
19 hours ago
Origin
Manufacturer
Unknown
Mission
Spacecraft
Bus & Motor
Unknown
Mass
Unknown
Launch date (UTC)
2000-09-21 (25 years ago)
Launch vehicle
Unknown
Launch site
Air Force Western Test Range (AFWTR)
Object type
Payload
Rocket body
Debris
Shape & HBR
Unknown
Radar Cross Section
Small (<0.1 m²)

Expand to show TLE details & history

TLE from 19 hours ago
0 NOAA 16 DEB
1 41372U 00055JR  25183.46382223  .00007100  00000-0  14839-2 0  9991
2 41372  98.9818  88.2125 0053067 317.5424  42.1674 14.59295428494915
Epoch: 2025-07-02T11:07Z
TLE epoch observation values (Epoch: 2025-07-02T11:07:54.24Z)
Latitude
-0.00001°
Longitude
0.49195°
Altitude
670.671 km
Speed
7.536 km/s
True Right ascension
05h 52m 51s
True Declination
0° 00' 00"
Sunlit
Object was in daylight at epoch
Visualization orbit readout
Latitude
-54.73513°
Longitude
14.21554°
Altitude
679.716 km
Speed
7.535 km/s
Apparent Right ascension
06h 34m 25s
Apparent Declination
-47° 33' 52"
Sunlit
Object is in daylight
Visualization observer readout
Local Sidereal Time
18:23:18
Azimuth
193.747° SSW
Elevation
-82.095°
Doppler factor
1
Orbital elements
Apogee altitude
730.092 km
Perigee altitude
655.047 km
Semi-major axis
7,070.707 km
Eccentricity
0.00531
Inclination
98.9818°
RAAN
88.2125°
Arg. of periapsis
317.5424°
True anomaly
Unknown
Mean anomaly
42.1674°
Eccentric anomaly
Unknown
Mean motion
3.65047 °/min
Orbital period
98.62 mins
BSTAR
0.0014839
Loading maneuver chart data...
Loading SW <> Apogee altitude chart data...
Loading historical data...
Loading historical data...
Loading historical data...
Loading historical data...
Loading historical data...
Loading historical data...
Loading historical data...

NOAA 16 DEB Visibility forecast

Observer location: undefined°, undefined°

Span
Click to sort rows by Start time (UTC) header in descending order
Start Az.
Max El. time (UTC)
Max El. Az.
Max El.
End time (UTC)
End Az.
7 mins2025-07-03 07:26:36.276Z348.362° N2025-07-03 07:30:36.276Z284.113° WNW26.205°2025-07-03 07:33:36.276Z238.912° WSW
6 mins2025-07-03 16:54:36.276Z114.309° SE2025-07-03 16:56:36.276Z75.015° E27.886°2025-07-03 17:00:36.276Z8.56° NNE
5 mins2025-07-03 18:32:36.276Z231.01° WSW2025-07-03 18:34:36.276Z268.738° W22.663°2025-07-03 18:37:36.276Z314.048° NW
8 mins2025-07-04 06:29:36.276Z18.71° NNE2025-07-04 06:33:36.276Z124.132° SE43.988°2025-07-04 06:37:36.276Z188.546° SSW
|